Weather Roundup
Issued by NWS

Home | Current Version | Previous Version | Text Only | Print | Product List | Glossary On
Versions: 1 2 3 4 5 6 7 8 9 10 11 12 13 14 15 16 17 18 19 20 21 22 23 24 25 26 27 28 29 30 31 32 33 34 35 36 37 38 39 40 41 42 43 44 45 46 47 48 49 50
000
NZUS93 KARX 282010
HRRWXR

CURRENT HOURLY OBSERVATIONS ACROSS
MUCH OF THE UPPER MISSISSIPPI VALLEY
NATIONAL WEATHER SERVICE LA CROSSE WI
200 PM CST WED JAN 28 2015


...SOUTHEAST MINNESOTA...


CITY           SKY/WX    TMP DP  RH WIND       PRES   REMARKS
ROCHESTER      CLOUDY    31  28  89 SE17      29.81F FOG     WCI  19
ROCHESTER/MAYO CLOUDY    31  28  90 E12G18    29.83F WCI  21
WINONA         CLOUDY    32  28  86 SE12      29.90F HAZE    WCI  23
AUSTIN         CLOUDY    32  28  86 SE15      29.80F FOG     WCI  22
ALBERT LEA     CLOUDY    32  30  93 SE10G21   29.78F FOG     WCI  24
DODGE CENTER   CLOUDY    30  30 100 SE17      29.80F FOG     WCI  18
PRESTON        PTSUNNY   32  27  81 SE15G22   29.83F WCI  22
OWATONNA       CLOUDY    32  28  86 SE16G22   29.80F FOG     WCI  21
FARIBAULT      CLOUDY    32  28  86 SE14      29.81F FOG     WCI  22
$$

...ELSEWHERE IN MINNESOTA...


CITY           SKY/WX    TMP DP  RH WIND       PRES   REMARKS
MINNEAPOLIS    CLOUDY    30  25  81 SE16      29.83F HAZE    WCI  19
INTNL FALLS    CLOUDY    27  23  85 SE6       29.81F WCI  20
DULUTH         CLOUDY    28  22  78 S12       29.82F WCI  18
RED WING       CLOUDY    30  27  86 SE16      29.86F FOG     WCI  19
REDWOOD FALLS  CLOUDY    34  31  88 SE12      29.75F FOG     WCI  25
MANKATO        CLOUDY    32  27  80 SE17      29.77F WCI  21
WORTHINGTON    CLOUDY    32  28  86 SE12      29.70F WCI  23
FAIRMONT       CLOUDY    34  28  80 SE17      29.74F WCI  23
$$

...SOUTHWEST WISCONSIN...


CITY           SKY/WX    TMP DP  RH WIND       PRES   REMARKS
LA CROSSE      PTSUNNY   34  26  72 SE13      29.92F WCI  25
PRAIRIE DU CHI MOSUNNY   34  22  62 SE14G21   29.93F WCI  25
BOSCOBEL       PTSUNNY   35  22  58 SE12G22   29.97F WCI  27
LONE ROCK      PTSUNNY   34  20  56 SE17      30.00F WCI  23
PLATTEVILLE    PTSUNNY   32  23  69 E16G22    29.95F WCI  21
FORT MC COY    CLOUDY    31  26  81 SE8       29.96F WCI  23
CAMP DOUGLAS   CLOUDY    28  28 100 SE13      29.97F WCI  18
VIROQUA        FAIR      32  27  80 SE18      29.91F WCI  20
WIS DELLS      CLOUDY    31  23  73 S15       30.00F WCI  20
$$

...ELSEWHERE IN WISCONSIN...


CITY           SKY/WX    TMP DP  RH WIND       PRES   REMARKS
MILWAUKEE      PTSUNNY   34  18  52 SE13      30.11F WCI  25
MADISON        CLOUDY    32  22  66 SE20      30.03F WCI  20
GREEN BAY      CLOUDY    32  22  66 S12       30.08F WCI  23
EAU CLAIRE     CLOUDY    29  23  78 SE13      29.90F HAZE    WCI  19
BLACK RVR FLS  CLOUDY    31  25  78 SE5       29.96F WCI  26
MEDFORD        CLOUDY    24  21  87 SE13      29.94F FOG     WCI  13
WAUSAU         CLOUDY    28  21  75 S13       29.96F WCI  17
WIS RAPIDS     CLOUDY    27  21  78 S12       30.01F WCI  17
MARSHFIELD     CLOUDY    26  22  84 SE14      29.96F FOG     WCI  14
RICE LAKE      CLOUDY    29  24  82 SE16G22   29.89F HAZE    WCI  17
$$

...NORTHEAST IOWA...


CITY           SKY/WX    TMP DP  RH WIND       PRES   REMARKS
DECORAH        MOSUNNY   34  27  75 SE14G24   29.86F WCI  24
MASON CITY     CLOUDY    34  30  85 SE16      29.80F FOG     WCI  24
CHARLES CITY   CLOUDY    34  32  93 SE17G29   29.82F WCI  23
OELWEIN        FAIR      36  30  80 SE24G30   29.85F WCI  24
$$

...ELSEWHERE IN IOWA...


CITY           SKY/WX    TMP DP  RH WIND       PRES   REMARKS
DES MOINES     CLOUDY    48  35  60 S20       29.77F
IOWA CITY      MOSUNNY   37  31  78 SE15      29.91F WCI  28
FORT DODGE     CLOUDY    37  30  75 SE6       29.75F WCI  33
$$

...NORTHERN ILLINOIS...


CITY           SKY/WX    TMP DP  RH WIND       PRES   REMARKS
CHICAGO-OHARE  CLOUDY    33  19  56 SE14      30.11F WCI  23
CHICAGO-MIDWAY CLOUDY    35  19  52 S14G22    30.13F WCI  26
MOLINE         PTSUNNY   35  27  72 SE14      29.98F WCI  26
ROCKFORD       CLOUDY    32  22  66 SE16      30.08F WCI  21
PEORIA         PTSUNNY   40  30  67 S17G26    30.03F WCI  31
$$

NOTE: "FAIR" INDICATES FEW OR NO CLOUDS BELOW 12,000 FEET WITH NO
SIGNIFICANT WEATHER AND/OR OBSTRUCTIONS TO VISIBILITY. WIND
SPEEDS ARE IN MILES-PER-HOUR.



USA.gov is the U.S. government's official web portal to all federal, state and local government web resources and services.